Tracking 30970 objects as of 3-Jul-2025
HD Live streaming from Space Station
objects crossing your sky now

TITAN 3C TRANSTAGE DEB

Track TITAN 3C TRANSTAGE DEB now!


NORAD ID: 43447
Int'l Code: 1969-013G
Perigee: 36,088.3 km
Apogee: 37,301.4 km
Inclination: 0.3 °
Period: 1,482.4 minutes
Semi major axis: 43065 km
RCS: Unknown
Launch date: February 9, 1969
Source: United States (US)
Launch site: AIR FORCE EASTERN TEST RANGE (AFETR)

Note: This is SATELLITE DEBRIS
Your satellite tracking list
Your tracking list is empty




NASA's NSSDC Master Catalog

Two Line Element Set (TLE):
1 43447U 69013G   25182.82714362 -.00000243  00000-0  00000-0 0  9992
2 43447   0.3490  83.3673 0140842  18.6124 259.5971  0.97141328 25865
Source of the keplerian elements: AFSPC